If you wish to contribute or participate in the discussions about articles you are invited to join SKYbrary as a registered user

 Actions

London Airport

From SKYbrary Wiki

CYXU
Airport
ICAO: CYXU – IATA: YXU
Summary
Name London Airport
Region North America
Territory "CY" is not in the list (AG, AN, AY, BG, BI, BK, C, CT, DA, DB, ...) of allowed values for the "ICAO Territory" property.
Location London, Ontario
Serving London
Elevation 277.978 m
912 ft
912 ft277.978 m
Type large airport
Coordinates 43° 1' 59.00" N, 81° 9' 4.00" W
Runways
Designator Length Width Surface ROPS
9/27 1920 m6,299.213 ft
61 m200.131 ft
ASP yes/yes
15/33 2682 m8,799.213 ft
61 m200.131 ft
ASP yes/yes


METAR
Observation CYXU 211900Z 24012G18KT 15SM SKC M01/M11 A3039 RMK SLP308
Station London, Ont.
Date/Time 21 February 2020 19:00:00
Wind direction 240°
Wind speed 12 kts
Lowest cloud amount n/a
Temperature
Dew point
Humidity 46%
QNH hPa
Weather condition n/a

Maps

Terrain

Loading map...

Airport Layout

Loading map...


Accidents & Serious Incidents at or in vicinity of CYXU

None on SKYbrary